Date,TemperatureHighF,TemperatureAvgF,TemperatureLowF,DewpointHighF,DewpointAvgF,DewpointLowF,HumidityHigh,HumidityAvg,HumidityLow,PressureMaxIn,PressureMinIn,WindSpeedMaxMPH,WindSpeedAvgMPH,GustSpeedMaxMPH,PrecipitationSumIn
2014-1-1,70,49,34,33,29,24,81,52,18,30.19,30.09,5,1,7,0.00
2014-1-2,73,58,38,32,26,22,77,36,15,30.20,30.08,14,3,18,0.00
2014-1-3,76,54,37,32,29,24,74,44,15,30.09,29.94,4,1,7,0.00
2014-1-4,67,51,40,39,30,23,76,49,20,30.06,29.97,6,1,9,0.00
2014-1-5,65,47,34,33,30,26,83,56,25,30.20,30.06,5,1,7,0.00
2014-1-6,66,47,30,28,14,-6,80,36,6,30.28,30.14,16,3,22,0.00
2014-1-7,71,53,37,28,15,4,44,24,8,30.19,30.04,9,1,12,0.00
2014-1-8,68,50,36,30,23,13,65,38,12,30.13,30.04,7,1,10,0.00
2014-1-9,66,45,32,27,22,17,67,45,15,30.11,29.98,4,0,7,0.00
2014-1-10,66,46,31,27,24,23,75,46,20,30.18,30.05,6,1,7,0.00
2014-1-11,71,49,33,31,28,25,74,48,20,30.24,30.07,5,1,7,0.00
2014-1-12,69,51,36,31,29,27,74,46,22,30.22,30.02,11,2,15,0.00
2014-1-13,68,48,31,30,25,17,77,46,14,30.36,30.22,6,1,10,0.00
2014-1-14,68,46,30,26,22,18,69,44,15,30.35,30.24,5,1,8,0.00
2014-1-15,73,51,32,25,21,13,61,36,10,30.34,30.19,8,1,11,0.00
2014-1-16,74,50,32,28,24,14,70,41,11,30.21,30.07,6,1,8,0.00
2014-1-17,76,53,33,26,20,10,66,34,8,30.22,30.09,11,1,15,0.00
2014-1-18,77,52,32,25,19,10,63,33,8,30.19,30.07,4,1,11,0.00
2014-1-19,78,55,37,24,19,8,49,28,7,30.23,30.12,6,1,8,0.00
2014-1-20,77,54,36,26,21,15,58,33,10,30.26,30.13,6,1,7,0.00
2014-1-21,76,59,38,23,16,11,52,24,9,30.26,30.11,16,4,21,0.00
2014-1-22,76,58,43,26,21,13,45,27,10,30.12,29.91,9,1,10,0.00
2014-1-23,74,54,36,30,22,12,62,34,10,30.21,29.95,7,1,13,0.00
2014-1-24,65,60,56,24,20,18,26,21,18,30.34,30.21,22,7,24,0.00
2014-1-25,72,62,51,47,34,21,55,35,24,30.27,30.12,7,1,11,0.00
2014-1-26,71,55,41,36,32,25,73,45,19,30.16,29.98,10,1,13,0.00
2014-1-27,70,56,42,33,30,24,61,40,21,30.08,29.96,13,1,18,0.00
2014-1-28,72,52,34,30,27,21,74,43,15,30.14,30.01,8,1,11,0.00
2014-1-29,74,53,34,27,22,9,66,36,8,30.14,29.99,6,1,8,0.00
2014-1-30,79,60,38,29,23,15,52,28,10,30.01,29.86,9,2,12,0.00
2014-1-31,70,63,54,39,31,23,53,32,20,29.93,29.82,14,3,17,0.00
2014-2-1,59,53,47,48,39,27,95,61,31,29.99,29.86,12,2,17,0.09
2014-2-2,60,48,32,33,28,24,84,50,26,30.12,29.97,7,1,9,0.00
2014-2-3,59,46,38,36,28,17,86,54,20,29.97,29.79,10,2,17,0.00
2014-2-4,58,44,33,37,30,26,93,62,31,30.10,29.96,7,1,12,0.00
2014-2-5,61,50,35,31,29,25,72,46,25,30.07,29.94,8,2,10,0.00
2014-2-6,57,46,34,32,29,27,77,55,33,30.08,29.96,6,1,7,0.00
2014-2-7,64,55,41,43,35,32,90,49,31,30.17,30.09,10,2,12,0.02
2014-2-8,70,52,37,36,31,23,82,50,17,30.25,30.16,6,1,10,0.00
2014-2-9,77,56,38,40,33,29,74,45,19,30.21,30.04,10,1,15,0.00
2014-2-10,76,59,40,37,33,29,74,42,20,30.09,29.91,14,2,18,0.00
2014-2-11,74,56,39,37,30,25,76,42,18,30.12,29.96,7,1,13,0.00
2014-2-12,76,56,37,28,25,22,60,34,13,30.19,30.06,7,1,10,0.00
2014-2-13,82,59,39,28,26,24,58,32,13,30.17,30.01,7,1,11,0.00
2014-2-14,85,62,42,33,27,24,57,31,11,30.15,30.03,5,1,8,0.00
2014-2-15,88,62,44,32,25,15,52,30,7,30.12,30.01,8,1,12,0.00
2014-2-16,84,65,48,30,22,12,44,22,7,30.11,30.02,10,1,16,0.00
2014-2-17,85,64,44,31,21,13,44,23,7,30.14,29.99,8,1,10,0.00
2014-2-18,83,63,44,30,22,14,47,24,8,30.07,29.93,8,1,11,0.00
2014-2-19,77,61,46,31,24,16,47,26,11,29.99,29.84,9,1,11,0.00
2014-2-20,75,57,40,27,18,6,50,25,7,30.12,29.94,10,2,17,0.00
2014-2-21,78,56,36,21,12,0,39,21,6,30.10,29.93,7,1,9,0.00
2014-2-22,78,58,38,19,14,4,40,21,6,30.01,29.90,9,1,15,0.00
2014-2-23,77,59,43,27,18,13,40,22,9,30.09,29.99,6,1,8,0.00
2014-2-24,80,62,47,31,26,19,39,27,15,30.08,29.95,7,1,11,0.00
2014-2-25,75,61,47,37,32,27,51,34,21,30.07,29.98,6,1,10,0.00
2014-2-26,77,61,45,41,36,31,72,41,19,30.09,29.94,8,1,14,0.00
2014-2-27,77,61,42,39,36,34,75,42,22,30.06,29.87,12,2,16,0.00
2014-2-28,81,65,46,42,36,30,70,38,16,29.96,29.87,11,2,18,0.00
2014-3-1,68,58,51,51,45,36,92,65,32,30.03,29.90,14,2,19,0.78
2014-3-2,66,55,46,47,44,41,93,69,43,30.18,29.98,14,2,25,0.16
2014-3-3,71,58,46,48,45,42,91,65,36,30.13,29.95,10,2,12,0.00
2014-3-4,74,59,48,49,44,40,92,62,30,30.04,29.88,10,2,11,0.00
2014-3-5,78,60,42,45,41,35,92,57,22,30.10,30.01,7,1,11,0.00
2014-3-6,82,64,48,43,36,19,77,42,10,30.11,29.93,11,1,13,0.00
2014-3-7,78,63,47,43,38,29,79,46,17,29.97,29.84,12,2,18,0.00
2014-3-8,75,60,46,44,36,18,82,45,16,30.17,29.96,20,3,28,0.00
2014-3-9,70,62,54,35,26,19,45,28,14,30.28,30.09,19,7,25,0.00
2014-3-10,77,64,50,37,30,24,57,30,18,30.17,29.99,9,2,12,0.00
2014-3-11,76,62,45,39,33,24,71,38,15,30.07,29.93,13,2,16,0.00
2014-3-12,79,63,43,38,30,25,71,34,15,30.09,29.97,19,4,21,0.00
2014-3-13,79,67,53,33,29,25,45,26,16,30.01,29.84,13,3,18,0.00
2014-3-14,72,58,44,34,32,26,64,40,18,30.10,29.94,14,2,17,0.00
2014-3-15,76,61,42,36,25,-1,69,33,7,30.18,30.04,19,3,21,0.00
2014-3-16,75,62,45,20,10,2,34,14,7,30.32,30.14,15,3,25,0.00
2014-3-17,82,62,38,22,15,6,49,20,6,30.17,29.72,13,2,19,0.00
2014-3-18,79,61,44,26,16,4,43,20,6,29.96,29.75,12,2,15,0.00
2014-3-19,80,60,39,22,16,8,45,21,7,30.10,29.96,8,1,12,0.00
2014-3-20,82,63,42,25,20,8,44,22,6,30.12,29.90,7,1,12,0.00
2014-3-21,81,64,45,28,22,16,47,23,9,30.01,29.89,10,2,13,0.00
2014-3-22,80,63,44,26,21,17,44,23,10,30.06,29.93,8,2,14,0.00
2014-3-23,82,64,43,29,24,14,52,25,8,30.13,29.99,8,1,9,0.00
2014-3-24,83,66,48,30,25,17,46,24,9,30.11,29.97,7,1,10,0.00
2014-3-25,84,66,48,34,27,20,44,25,10,30.01,29.81,11,2,18,0.00
2014-3-26,80,64,47,34,28,17,54,30,12,29.93,29.78,14,4,23,0.00
2014-3-27,72,59,43,42,34,26,72,41,19,30.03,29.91,14,2,20,0.00
2014-3-28,75,59,41,33,30,27,64,36,18,30.17,30.02,10,2,12,0.00
2014-3-29,86,64,41,30,22,1,57,26,4,30.17,29.96,7,1,10,0.00
2014-3-30,79,64,48,29,24,21,39,24,12,30.01,29.89,12,2,18,0.00
2014-3-31,82,63,41,30,21,11,55,24,7,30.06,29.90,13,2,17,0.00
2014-4-1,82,66,47,23,8,-16,37,14,2,29.99,29.85,19,4,23,0.00
2014-4-2,68,58,46,34,25,14,44,29,18,29.96,29.85,17,4,21,0.00
2014-4-3,68,55,37,30,22,18,55,30,16,30.09,29.96,9,2,13,0.00
2014-4-4,77,60,37,24,17,10,50,23,8,30.03,29.83,9,2,12,0.00
2014-4-5,73,60,43,24,19,15,38,21,13,29.96,29.84,12,2,25,0.00
2014-4-6,74,60,41,25,20,15,45,24,11,30.04,29.94,14,3,25,0.00
2014-4-7,85,64,44,24,19,9,38,21,6,30.18,30.03,11,2,12,0.00
2014-4-8,91,70,46,26,12,-23,39,17,1,30.22,30.08,8,2,10,0.00
2014-4-9,92,70,47,28,11,-10,30,13,2,30.14,30.00,8,2,13,0.00
2014-4-10,94,73,49,24,2,-27,29,11,1,30.11,29.94,11,2,19,0.00
2014-4-11,92,76,60,29,17,3,23,12,4,30.07,29.86,7,1,12,0.00
2014-4-12,85,73,58,25,19,10,23,13,7,29.93,29.75,15,3,22,0.00
2014-4-13,85,68,48,37,22,16,34,19,9,29.95,29.81,12,3,19,0.00
2014-4-14,84,67,49,33,16,-6,45,19,3,30.08,29.95,7,2,11,0.00
2014-4-15,90,69,45,18,11,-3,29,13,3,30.05,29.80,15,2,18,0.00
2014-4-16,87,70,46,23,11,0,30,13,4,29.93,29.76,13,2,18,0.00
2014-4-17,91,73,51,30,22,14,36,17,7,30.01,29.86,9,1,11,0.00
2014-4-18,78,68,59,44,37,24,49,32,19,30.05,29.93,13,2,25,0.00
2014-4-19,81,68,55,46,42,34,62,41,19,30.08,29.94,11,2,14,0.00
2014-4-20,86,70,50,44,40,35,69,37,19,30.13,30.01,9,2,12,0.00
2014-4-21,93,76,55,42,35,28,51,26,11,30.13,29.95,8,1,12,0.00
2014-4-22,93,77,58,40,32,19,44,22,7,30.01,29.80,13,3,20,0.00
2014-4-23,85,70,53,36,25,13,44,21,7,29.96,29.83,19,3,21,0.00
2014-4-24,88,70,46,25,16,10,34,16,6,30.04,29.89,8,2,13,0.00
2014-4-25,90,73,53,34,20,8,35,17,5,29.98,29.79,12,3,18,0.00
2014-4-26,71,63,49,50,32,21,78,34,17,29.93,29.75,21,4,29,0.01
2014-4-27,74,59,41,38,29,23,72,37,16,29.98,29.86,11,2,16,0.00
2014-4-28,81,65,44,31,28,25,50,27,14,30.02,29.90,12,3,20,0.00
2014-4-29,84,68,50,30,13,-15,38,16,2,30.06,29.91,10,2,14,0.00
2014-4-30,82,67,47,20,11,6,23,12,6,30.03,29.88,12,4,18,0.00
2014-5-1,83,72,63,27,23,17,22,16,10,30.05,29.92,25,6,33,0.00
2014-5-2,89,72,50,26,16,9,31,14,5,30.11,29.96,14,2,17,0.00
2014-5-3,95,77,52,24,13,-6,27,11,2,30.07,29.93,8,2,11,0.00
2014-5-4,96,78,58,22,14,0,22,10,3,30.09,29.94,12,2,15,0.00
2014-5-5,91,76,57,32,21,13,30,14,6,30.06,29.89,13,3,17,0.00
2014-5-6,87,73,58,38,16,-12,38,15,2,29.93,29.71,16,4,22,0.00
2014-5-7,75,63,49,40,31,18,54,32,13,29.94,29.79,14,3,24,0.00
2014-5-8,79,64,44,33,27,20,54,28,12,30.03,29.94,7,2,12,0.00
2014-5-9,85,68,48,30,23,11,42,21,7,30.06,29.93,10,2,14,0.00
2014-5-10,91,74,53,37,29,23,39,21,9,29.96,29.73,15,3,19,0.00
2014-5-11,79,70,58,43,27,12,36,22,10,29.96,29.74,15,5,26,0.00
2014-5-12,83,66,44,21,16,12,29,16,7,30.05,29.93,12,2,17,0.00
2014-5-13,86,72,48,24,18,9,31,14,6,30.14,30.04,15,4,21,0.00
2014-5-14,85,74,63,26,21,15,23,14,8,30.22,30.09,22,9,32,0.00
2014-5-15,95,79,65,20,13,1,16,9,3,30.17,30.02,16,4,23,0.00
2014-5-16,98,80,55,26,12,-19,26,10,1,30.12,29.93,10,2,16,0.00
2014-5-17,99,82,64,27,8,-19,20,8,1,30.02,29.85,12,2,16,0.00
2014-5-18,98,81,57,19,2,-23,17,6,1,29.95,29.82,11,2,15,0.00
2014-5-19,96,82,64,25,5,-21,14,6,1,29.96,29.86,12,2,16,0.00
2014-5-20,96,79,57,22,14,5,19,10,4,30.00,29.88,15,3,22,0.00
2014-5-21,91,76,56,24,17,8,25,12,5,29.96,29.88,20,4,23,0.00
2014-5-22,91,75,53,33,21,12,26,14,7,30.01,29.87,16,3,21,0.00
2014-5-23,87,71,54,37,21,1,35,17,4,30.01,29.88,13,3,18,0.00
2014-5-24,84,71,54,38,33,24,51,27,12,30.03,29.91,10,2,14,0.00
2014-5-25,89,77,65,41,36,30,33,23,14,30.01,29.90,13,2,18,0.00
2014-5-26,96,80,60,40,36,33,40,22,12,30.06,29.93,17,3,19,0.00
2014-5-27,103,86,62,41,35,31,37,18,9,30.08,29.89,13,2,16,0.00
2014-5-28,102,86,65,37,30,21,29,15,8,30.00,29.83,13,2,20,0.00
2014-5-29,90,80,70,48,39,28,35,23,16,30.08,29.91,10,1,16,0.00
2014-5-30,101,84,62,45,40,33,49,24,11,29.98,29.84,9,2,12,0.00
2014-5-31,104,88,68,43,34,23,33,17,6,29.96,29.83,12,3,15,0.00
2014-6-1,102,85,62,36,26,17,29,14,5,29.96,29.84,9,2,17,0.00
2014-6-2,107,89,62,35,20,0,25,11,2,29.94,29.83,9,2,14,0.00
2014-6-3,106,89,67,37,28,22,26,13,6,29.94,29.80,14,2,14,0.00
2014-6-4,106,87,63,33,15,-14,24,10,1,29.92,29.78,12,2,20,0.00
2014-6-5,105,87,64,28,8,-17,18,7,1,29.89,29.73,12,2,17,0.00
2014-6-6,102,84,60,18,-1,-20,14,6,1,29.86,29.74,12,2,14,0.00
2014-6-7,102,85,60,38,21,5,20,11,5,29.87,29.75,13,-5,16,0.00
2014-6-8,100,86,65,44,33,28,30,16,8,29.91,29.77,8,2,13,0.00
2014-6-9,104,87,66,47,34,13,45,19,5,29.95,29.79,9,2,14,0.00
2014-6-10,105,88,66,48,35,5,33,17,3,29.94,29.81,11,2,18,0.00
2014-6-11,102,89,74,51,44,32,43,23,13,29.96,29.85,15,3,17,0.00
2014-6-12,104,89,69,50,40,26,37,20,8,30.02,29.87,9,2,13,0.00
2014-6-13,104,90,73,52,47,41,45,25,13,30.00,29.81,17,3,21,0.00
2014-6-14,101,88,70,45,41,36,36,21,11,29.92,29.78,15,4,20,0.00
2014-6-15,100,86,64,40,29,11,34,15,4,29.93,29.83,15,4,19,0.00
2014-6-16,101,87,66,45,34,24,29,16,10,29.97,29.85,16,4,23,0.00
2014-6-17,96,81,70,50,45,42,39,25,19,29.99,29.86,13,4,21,0.00
2014-6-18,97,84,68,48,44,40,41,25,15,29.96,29.87,13,4,21,0.00
2014-6-19,99,87,65,46,40,36,40,21,12,30.03,29.90,10,2,13,0.00
2014-6-20,104,89,68,41,36,33,34,18,9,30.01,29.85,11,3,17,0.00
2014-6-21,103,89,68,44,39,35,36,19,10,30.00,29.86,13,3,17,0.00
2014-6-22,104,89,70,41,37,30,30,17,9,30.02,29.84,13,3,17,0.00
2014-6-23,103,89,69,39,30,17,27,14,6,30.01,29.87,14,2,18,0.00
2014-6-24,102,88,70,43,36,28,28,16,9,30.06,29.89,13,3,16,0.00
2014-6-25,104,89,69,49,42,33,35,20,12,30.02,29.85,11,3,18,0.00
2014-6-26,104,90,72,53,42,29,42,21,8,29.99,29.81,13,3,18,0.00
2014-6-27,101,87,68,42,35,25,29,17,7,29.91,29.77,14,3,18,0.00
2014-6-28,103,88,70,43,38,32,33,18,9,29.94,29.85,10,2,12,0.00
2014-6-29,105,91,74,58,47,33,48,25,9,30.03,29.88,12,2,14,0.00
2014-6-30,106,91,73,60,43,25,52,24,6,30.03,29.84,9,2,13,0.00
2014-7-1,104,90,71,43,37,32,32,17,9,30.00,29.84,10,2,16,0.00
2014-7-2,104,91,73,55,46,36,37,23,13,30.04,29.85,14,3,17,0.00
2014-7-3,104,87,76,64,55,49,58,36,17,30.16,29.91,12,3,16,0.01
2014-7-4,98,84,76,62,59,56,58,44,26,30.17,30.02,14,3,16,0.00
2014-7-5,99,82,69,71,63,58,93,57,26,30.17,29.99,18,2,25,1.36
2014-7-6,98,85,73,70,64,54,91,54,25,30.11,29.92,11,2,12,0.00
2014-7-7,94,84,77,66,63,56,66,52,29,30.03,29.94,13,2,15,0.00
2014-7-8,99,85,72,66,63,58,80,50,27,30.08,29.92,16,2,16,0.00
2014-7-9,96,84,74,67,62,54,79,50,26,30.11,29.92,24,3,24,0.00
2014-7-10,99,86,76,65,60,53,67,44,24,30.05,29.88,17,3,18,0.00
2014-7-11,99,87,77,66,60,56,67,41,27,30.10,29.91,17,3,17,0.00
2014-7-12,98,84,72,68,62,55,82,51,27,30.08,29.93,11,2,11,0.00
2014-7-13,101,84,72,67,61,54,85,51,22,30.12,29.92,21,3,21,0.10
2014-7-14,98,82,70,70,66,60,93,61,30,30.13,30.02,16,1,16,0.00
2014-7-15,87,80,74,71,65,60,82,60,42,30.16,30.01,12,2,12,0.16
2014-7-16,98,84,70,68,61,50,89,51,24,30.07,29.91,18,2,18,0.00
2014-7-17,98,84,73,62,50,41,61,34,15,30.06,29.93,17,2,17,0.00
2014-7-18,99,86,71,54,47,40,47,27,17,30.07,29.95,12,2,12,0.00
2014-7-19,100,88,74,56,52,46,52,31,18,30.08,29.95,14,2,14,0.00
2014-7-20,101,88,73,54,46,40,50,26,14,30.10,29.97,12,2,12,0.00
2014-7-21,103,89,74,56,46,41,51,24,13,30.14,29.98,16,2,18,0.00
2014-7-22,106,92,74,57,48,45,42,24,15,30.10,29.97,23,2,23,0.00
2014-7-23,106,94,79,61,56,50,49,30,16,30.10,29.95,23,3,23,0.00
2014-7-24,108,94,80,62,51,38,54,27,11,30.04,29.88,21,2,21,0.00
2014-7-25,103,86,75,65,61,56,62,46,23,30.07,29.94,19,2,19,0.00
2014-7-26,100,87,71,63,60,56,71,43,27,30.11,29.91,18,3,18,0.00
2014-7-27,99,87,72,66,59,54,83,42,24,30.19,29.94,18,5,26,0.01
2014-7-28,95,84,71,67,61,56,84,49,29,30.20,30.06,10,2,10,0.02
2014-7-29,103,89,73,63,57,49,68,37,17,30.13,29.96,15,2,15,0.00
2014-7-30,103,89,74,57,55,49,54,34,18,30.06,29.94,17,2,17,0.00
2014-7-31,101,85,77,68,60,54,68,44,22,30.10,29.96,17,1,17,0.09
2014-8-1,96,83,72,68,62,53,86,53,27,30.13,29.94,15,2,15,0.06
2014-8-2,87,75,70,71,67,61,95,78,44,30.10,30.00,13,1,15,0.33
2014-8-3,97,82,67,69,62,52,97,58,23,30.10,29.96,10,1,10,0.00
2014-8-4,98,86,72,65,56,44,74,41,19,30.09,29.95,13,2,13,0.00
2014-8-5,101,86,67,54,45,33,63,28,10,30.11,29.98,11,2,12,0.00
2014-8-6,102,87,68,58,49,41,62,30,14,30.09,29.93,12,2,14,0.00
2014-8-7,99,86,71,57,48,42,55,30,16,30.07,29.92,11,1,11,0.00
2014-8-8,101,87,72,64,57,46,67,40,17,30.06,29.88,15,2,16,0.00
2014-8-9,98,85,75,64,60,51,66,45,24,30.10,29.91,17,3,17,0.00
2014-8-10,100,85,69,61,58,55,68,43,24,30.09,29.95,15,2,15,0.00
2014-8-11,99,88,75,63,58,53,61,38,23,30.07,29.94,19,4,22,0.00
2014-8-12,94,81,71,71,64,56,93,60,33,30.08,29.99,20,3,20,0.33
2014-8-13,95,80,68,68,66,62,94,65,36,30.12,29.99,14,2,14,0.00
2014-8-14,91,81,71,70,66,63,86,63,40,30.09,30.00,15,1,15,0.02
2014-8-15,97,80,71,72,65,57,82,63,30,30.12,29.99,25,2,25,1.14
2014-8-16,98,84,70,69,65,53,90,57,29,30.13,29.96,21,2,21,0.03
2014-8-17,99,82,70,72,63,55,83,55,28,30.14,29.90,27,2,29,0.13
2014-8-18,95,80,68,68,62,52,94,58,26,30.06,29.90,24,3,30,1.06
2014-8-19,86,76,69,70,68,64,95,78,49,30.02,29.90,14,2,14,0.36
2014-8-20,93,79,68,67,63,54,92,61,28,30.06,29.93,10,1,10,0.00
2014-8-21,84,76,70,68,65,61,87,70,50,30.08,30.01,11,1,15,0.00
2014-8-22,91,78,66,66,61,56,93,60,32,30.09,29.98,11,2,11,0.00
2014-8-23,93,81,68,65,60,53,88,53,27,30.06,29.91,13,1,13,0.00
2014-8-24,97,83,68,63,58,51,81,45,23,30.01,29.89,14,1,14,0.00
2014-8-25,92,81,71,68,64,60,84,57,37,30.09,29.94,11,1,11,0.00
2014-8-26,92,79,71,72,66,58,90,67,33,30.11,30.01,15,1,15,0.07
2014-8-27,96,82,68,68,64,58,94,60,30,30.16,30.02,11,1,12,0.00
2014-8-28,98,84,68,63,57,48,79,44,21,30.08,29.92,13,2,14,0.00
2014-8-29,101,84,65,57,49,40,70,34,14,29.99,29.86,10,1,10,0.00
2014-8-30,104,86,66,55,46,36,59,30,10,29.99,29.85,11,1,13,0.00
2014-8-31,103,86,68,56,48,38,59,31,12,30.01,29.88,15,2,15,0.00
2014-9-1,102,86,67,56,48,40,58,30,14,30.01,29.88,12,1,12,0.00
2014-9-2,103,88,67,58,48,38,61,29,11,30.00,29.83,11,2,11,0.00
2014-9-3,98,85,70,62,53,46,63,35,19,29.93,29.79,9,1,10,0.00
2014-9-4,101,85,69,68,57,50,91,44,20,30.08,29.77,15,2,18,0.42
2014-9-5,93,80,67,68,64,57,96,63,32,30.06,29.94,9,1,16,0.00
2014-9-6,92,77,70,71,67,63,92,74,40,30.08,29.99,10,1,12,0.16
2014-9-7,93,83,72,70,64,60,87,55,34,30.05,29.88,18,4,21,0.03
2014-9-8,80,73,69,72,70,68,98,90,69,30.05,29.96,7,0,8,1.11
2014-9-9,88,77,69,70,67,61,96,73,44,30.07,29.95,8,1,10,0.00
2014-9-10,91,78,65,65,60,53,94,60,30,30.05,29.92,9,1,9,0.00
2014-9-11,96,80,65,64,58,46,89,52,19,30.00,29.88,7,1,8,0.00
2014-9-12,101,84,67,64,58,51,81,47,20,29.97,29.84,18,2,22,0.00
2014-9-13,89,82,75,59,56,55,51,42,33,30.01,29.89,27,8,28,0.00
2014-9-14,94,84,76,59,57,54,48,40,30,29.99,29.87,20,5,21,0.00
2014-9-15,96,86,79,65,59,57,58,41,29,30.03,29.91,19,3,19,0.00
2014-9-16,80,78,71,67,64,60,85,63,53,30.06,29.91,20,4,22,0.06
2014-9-17,82,77,74,68,64,62,80,66,56,29.94,29.83,22,5,22,0.07
2014-9-18,81,75,70,68,66,63,90,73,57,29.92,29.83,12,2,18,0.00
2014-9-19,90,78,70,72,67,64,90,71,44,29.98,29.88,8,1,9,0.04
2014-9-20,89,78,68,72,68,65,93,73,48,30.03,29.93,7,1,9,0.22
2014-9-21,93,80,68,68,66,61,93,65,38,30.08,29.96,16,2,18,0.00
2014-9-22,95,82,69,66,63,58,84,55,30,30.11,29.97,9,1,11,0.00
2014-9-23,98,83,68,68,62,56,84,52,28,30.07,29.93,12,1,14,0.00
2014-9-24,100,84,68,62,59,53,77,47,23,30.05,29.93,14,2,15,0.00
2014-9-25,100,84,70,68,59,50,71,46,21,30.08,29.93,11,1,14,0.00
2014-9-26,93,79,69,65,62,57,82,57,32,30.05,29.92,13,1,13,0.00
2014-9-27,91,78,64,64,60,54,84,57,31,29.96,29.81,20,2,20,0.00
2014-9-28,88,78,69,68,59,49,78,55,27,29.99,29.90,17,2,18,0.00
2014-9-29,88,75,59,63,53,39,82,51,23,29.98,29.87,11,1,16,0.00
2014-9-30,87,70,52,48,40,32,71,39,14,29.97,29.85,8,1,12,0.00
2014-10-1,89,73,54,49,41,34,66,35,15,29.96,29.83,9,1,11,0.00
2014-10-2,92,72,52,47,40,32,67,36,13,30.10,29.96,15,1,19,0.00
2014-10-3,96,75,50,41,33,23,62,28,8,30.15,30.04,14,2,18,0.00
2014-10-4,96,76,54,45,37,24,58,29,9,30.12,29.98,13,2,13,0.00
2014-10-5,92,75,56,50,45,37,64,37,21,30.09,29.93,13,1,13,0.00
2014-10-6,92,74,58,50,39,24,66,33,11,30.08,29.97,9,1,10,0.00
2014-10-7,91,75,62,62,47,38,73,40,19,30.08,29.94,12,2,12,0.00
2014-10-8,81,68,64,68,64,58,97,87,49,30.04,29.86,23,1,23,1.46
2014-10-9,73,66,59,65,62,58,99,86,62,30.04,29.94,11,1,11,0.51
2014-10-10,82,70,56,62,60,55,99,73,46,30.09,30.00,8,1,10,0.01
2014-10-11,87,71,57,60,56,46,96,65,25,30.09,29.97,8,1,8,0.00
2014-10-12,84,70,56,58,52,44,95,59,26,30.01,29.90,17,2,17,0.00
2014-10-13,85,69,56,53,46,34,88,52,18,30.12,29.99,15,1,15,0.00
2014-10-14,89,72,50,49,40,33,84,40,16,30.11,29.96,15,2,15,0.00
2014-10-15,92,72,55,55,48,40,75,47,17,30.06,29.95,10,1,10,0.00
2014-10-16,88,72,59,55,51,39,82,52,19,30.08,29.94,8,1,8,0.00
2014-10-17,86,68,58,54,49,37,76,53,20,30.07,29.91,14,1,14,0.00
2014-10-18,89,71,52,53,47,39,82,48,18,29.97,29.83,10,1,10,0.00
2014-10-19,89,68,58,59,52,40,88,61,22,29.98,29.83,16,1,16,0.55
2014-10-20,85,71,58,59,52,39,76,52,29,30.00,29.90,22,3,22,0.05
2014-10-21,84,72,61,57,52,48,75,52,29,29.99,29.88,15,2,15,0.00
2014-10-22,87,70,56,58,53,48,88,58,26,30.07,29.96,8,1,8,0.00
2014-10-23,89,71,55,56,51,45,89,56,23,30.14,30.02,8,1,8,0.00
2014-10-24,92,72,54,56,50,44,85,51,21,30.17,30.05,7,0,7,0.00
2014-10-25,94,76,56,57,52,44,86,50,20,30.16,30.02,9,1,9,0.00
2014-10-26,88,73,60,59,55,45,84,56,34,30.04,29.89,12,1,14,0.00
2014-10-27,83,69,59,58,53,49,83,61,32,30.03,29.89,9,1,9,0.00
2014-10-28,84,67,52,55,50,44,91,59,27,30.12,30.01,8,1,8,0.00
2014-10-29,88,68,50,50,46,39,86,50,18,30.14,30.02,8,1,8,0.00
2014-10-30,90,71,50,48,41,32,79,41,14,30.13,30.00,11,1,11,0.00
2014-10-31,92,74,59,51,47,42,61,40,23,30.05,29.90,9,1,12,0.00
2014-11-1,85,71,59,54,46,36,70,45,19,29.99,29.88,16,1,16,0.00
2014-11-2,71,64,50,55,47,36,70,56,41,30.04,29.92,16,2,16,0.00
2014-11-3,69,54,39,39,34,28,86,50,26,30.10,30.01,11,1,11,0.00
2014-11-4,72,55,36,35,32,28,81,47,20,30.16,30.04,15,2,15,0.00
2014-11-5,74,66,58,40,37,32,46,35,25,30.19,30.06,26,7,26,0.00
2014-11-6,76,67,59,43,39,32,46,36,27,30.32,30.19,24,7,25,0.00
2014-11-7,81,67,52,45,42,38,62,41,26,30.27,30.06,11,3,16,0.00
2014-11-8,83,66,44,42,37,32,78,41,17,30.18,30.07,18,3,20,0.00
2014-11-9,84,68,51,41,36,30,53,32,17,30.11,29.88,15,2,15,0.00
2014-11-10,83,67,51,43,38,32,60,38,18,29.96,29.84,13,1,13,0.00
2014-11-11,80,66,50,50,46,42,82,52,29,30.01,29.90,8,1,9,0.00
2014-11-12,79,64,52,53,46,41,86,57,28,30.05,29.91,13,1,13,0.00
2014-11-13,78,63,48,52,45,39,89,55,27,30.11,29.99,8,1,10,0.00
2014-11-14,77,61,48,53,47,42,83,62,35,30.06,29.94,15,1,16,0.00
2014-11-15,74,59,48,52,45,38,92,62,30,30.11,29.97,10,1,10,0.00
2014-11-16,68,54,40,50,36,18,88,54,20,30.17,29.93,18,2,22,0.00
2014-11-17,67,51,33,23,19,14,55,30,16,30.22,30.09,21,3,22,0.00
2014-11-18,70,54,37,21,16,6,50,26,9,30.26,30.14,22,3,22,0.00
2014-11-19,74,52,34,22,16,5,50,28,7,30.22,30.08,7,1,8,0.00
2014-11-20,73,52,34,35,22,9,59,35,9,30.14,30.00,9,1,12,0.00
2014-11-21,71,53,40,38,28,18,73,42,14,30.04,29.90,9,1,9,0.00
2014-11-22,70,51,33,38,31,25,89,53,19,30.14,29.99,9,1,9,0.00
2014-11-23,67,51,39,34,26,2,70,42,14,30.17,29.99,16,2,16,0.00
2014-11-24,65,46,28,15,8,1,43,23,9,30.34,30.16,12,1,13,0.00
2014-11-25,65,51,34,13,6,-4,34,17,6,30.43,30.31,22,3,26,0.00
2014-11-26,76,50,31,23,16,10,46,28,10,30.35,30.21,9,1,9,0.00
2014-11-27,82,64,39,27,21,16,49,24,9,30.26,30.13,18,3,18,0.00
2014-11-28,84,62,43,29,23,16,47,25,8,30.14,29.98,10,1,10,0.00
2014-11-29,80,59,40,30,26,21,57,31,12,30.05,29.92,8,1,8,0.00
2014-11-30,76,57,41,32,26,23,52,33,15,30.16,30.00,12,1,12,0.00
2014-12-1,73,53,36,35,30,25,71,45,17,30.24,30.08,9,1,9,0.00
2014-12-2,71,58,44,44,33,24,57,41,17,30.13,30.00,4,0,4,0.00
2014-12-3,78,65,57,52,47,39,71,53,38,30.12,30.03,8,0,8,0.00
2014-12-4,63,57,50,58,54,49,97,89,69,30.15,30.01,8,1,8,1.09
2014-12-5,71,56,44,54,48,44,99,78,43,30.22,30.12,11,1,11,0.01
2014-12-6,68,56,46,52,47,42,94,75,46,30.24,30.14,13,1,13,0.00
2014-12-7,75,57,40,48,43,39,98,65,29,30.25,30.12,14,2,14,0.00
2014-12-8,74,64,51,47,42,37,86,46,30,30.17,30.08,16,3,18,0.00
2014-12-9,76,59,50,50,46,41,89,67,29,30.13,30.02,6,0,7,0.00
2014-12-10,75,57,42,51,46,41,97,70,32,30.08,29.96,9,1,11,0.00
2014-12-11,75,56,44,48,40,23,96,63,15,30.12,30.03,7,1,7,0.00
2014-12-12,76,60,44,50,41,34,80,53,30,30.16,30.02,7,1,13,0.00
2014-12-13,61,51,40,52,47,39,97,87,67,30.12,30.00,7,1,12,0.32
2014-12-14,58,44,34,45,39,34,98,83,51,30.15,30.07,8,1,9,0.01
2014-12-15,67,47,32,43,37,28,98,73,24,30.13,30.00,6,0,6,0.00
2014-12-16,65,51,42,45,42,37,91,72,37,30.10,29.97,6,1,6,0.00
2014-12-17,54,48,45,50,45,39,96,89,71,30.17,30.04,7,0,8,0.65
2014-12-18,56,48,37,50,43,36,98,86,48,30.21,30.08,10,1,15,0.03
2014-12-19,61,44,32,43,37,32,98,79,39,30.26,30.11,11,1,13,0.01
2014-12-20,63,46,34,40,37,32,96,73,36,30.19,30.07,5,1,7,0.00
2014-12-21,63,47,36,43,39,34,97,76,40,30.17,30.05,8,1,8,0.00
2014-12-22,63,49,36,43,40,35,98,74,45,30.08,29.92,7,1,8,0.00
2014-12-23,63,48,35,43,28,12,96,56,16,30.18,29.98,17,2,18,0.00
2014-12-24,66,46,30,34,24,11,79,48,13,30.19,29.87,14,1,15,0.00
2014-12-25,68,53,42,42,30,15,91,48,16,29.87,29.68,20,2,21,0.07
2014-12-26,51,42,29,40,25,13,92,57,24,30.11,29.85,12,1,12,0.00
2014-12-27,52,37,25,27,24,20,93,65,28,30.30,30.11,8,1,10,0.00